This is the latest recevied weather packets stored in our database for station/object DG5MG. If no packets are shown the sender has not sent any weather packets the latest 10 day(s).
| Time | Temp. | Humidity | Pressure | Rain* | Wind** | Luminosity | Snow |
|---|---|---|---|---|---|---|---|
| 1777795506 | 21.67° C | 45% | 1020.7 hPa | 0 mm | - | 678 W/m² | - |
| 1777793106 | 19.44° C | 50% | 1021 hPa | 0 mm | - | 480 W/m² | - |
| 1777791606 | 18.33° C | 54% | 1021 hPa | 0 mm | - | 361 W/m² | - |
| 1777790106 | 15.56° C | 63% | 1021 hPa | 0 mm | - | 249 W/m² | - |
| 1777785606 | 12.22° C | 73% | 1020.7 hPa | 0 mm | - | 0 W/m² | - |
| 1777785005 | 10.56° C | 79% | 1021 hPa | 0 mm | - | 0 W/m² | - |
| 1777784706 | 10° C | 79% | 1021 hPa | 0 mm | - | 0 W/m² | - |
| 1777784406 | 9.44° C | 80% | 1021 hPa | 0 mm | - | 0 W/m² | - |
| 1777782305 | 8.33° C | 84% | 1021 hPa | 0 mm | - | 0 W/m² | - |
| 1777780206 | 7.78° C | 84% | 1020.7 hPa | 0 mm | - | 0 W/m² | - |
| 1777779906 | 7.78° C | 84% | 1020.8 hPa | 0 mm | - | 0 W/m² | - |
| 1777779306 | 7.78° C | 85% | 1021 hPa | 0 mm | - | 0 W/m² | - |
| 1777778406 | 7.78° C | 84% | 1020.7 hPa | 0 mm | - | 0 W/m² | - |
| 1777776906 | 8.33° C | 84% | 1021 hPa | 0 mm | - | 0 W/m² | - |
| 1777775405 | 8.33° C | 81% | 1021 hPa | 0 mm | - | 0 W/m² | - |
| 1777772105 | 8.89° C | 79% | 1021 hPa | 0 mm | - | 0 W/m² | - |
| 1777771505 | 9.44° C | 78% | 1021 hPa | 0 mm | - | 0 W/m² | - |
| 1777766706 | 9.44° C | 77% | 1021.2 hPa | 0 mm | - | 0 W/m² | - |
| 1777764606 | 10° C | 76% | 1021.7 hPa | 0 mm | - | 0 W/m² | - |
| 1777763706 | 10.56° C | 74% | 1021.7 hPa | 0 mm | - | 0 W/m² | - |
| 1777762805 | 10.56° C | 74% | 1021.7 hPa | 0 mm | - | 0 W/m² | - |
| 1777755005 | 13.33° C | 63% | 1022.7 hPa | 0 mm | - | 0 W/m² | - |
| 1777754406 | 13.89° C | 61% | 1022.7 hPa | 0 mm | - | 0 W/m² | - |
| 1777754106 | 14.44° C | 60% | 1022.7 hPa | 0 mm | - | 0 W/m² | - |
| 1777752305 | 15.56° C | 56% | 1022.7 hPa | 0 mm | - | 0 W/m² | - |
* Rain latest hour (hover to see other rain measurements)
** Current wind speed in m/s (hover to see current wind gust speed)